Time,TemperatureF,DewpointF,PressureIn,WindDirection,WindDirectionDegrees,WindSpeedMPH,WindSpeedGustMPH,Humidity,HourlyPrecipIn,Conditions,Clouds,dailyrainin,SoftwareType,DateUTC
2013-01-11 00:03:00,38.0,36.0,-100.00,SSE,160,11.0,14.0,89,0.00,,,-99.99,,2013-01-11 06:03:00,
2013-01-11 00:12:00,39.0,36.0,-100.00,South,170,11.0,14.0,89,0.00,,,-99.99,,2013-01-11 06:12:00,
2013-01-11 00:22:00,39.0,36.0,-100.00,SSE,165,11.0,15.0,89,0.00,,,-99.99,,2013-01-11 06:22:00,
2013-01-11 00:32:00,39.0,36.0,-100.00,South,180,7.0,11.0,89,0.00,,,-99.99,,2013-01-11 06:32:00,
2013-01-11 00:42:00,39.0,36.0,-100.00,South,180,7.0,11.0,89,0.00,,,-99.99,,2013-01-11 06:42:00,
2013-01-11 00:52:00,39.0,36.0,-100.00,South,180,10.0,13.0,89,0.00,,,-99.99,,2013-01-11 06:52:00,
2013-01-11 01:02:00,39.0,36.0,-100.00,South,180,10.0,13.0,89,0.00,,,-99.99,,2013-01-11 07:02:00,
2013-01-11 01:12:00,40.0,37.0,-100.00,South,175,9.0,12.0,89,0.00,,,-99.99,,2013-01-11 07:12:00,
2013-01-11 01:22:00,40.0,37.0,-100.00,South,175,9.0,12.0,89,0.00,,,-99.99,,2013-01-11 07:22:00,
2013-01-11 01:32:00,40.0,37.0,-100.00,South,190,7.0,10.0,89,0.00,,,-99.99,,2013-01-11 07:32:00,
2013-01-11 01:42:00,40.0,37.0,-100.00,South,190,7.0,10.0,89,0.00,,,-99.99,,2013-01-11 07:42:00,
2013-01-11 01:52:00,40.0,37.0,-100.00,South,175,3.0,8.0,89,0.00,,,-99.99,,2013-01-11 07:52:00,
2013-01-11 02:02:00,40.0,37.0,-100.00,South,175,3.0,8.0,89,0.00,,,-99.99,,2013-01-11 08:02:00,
2013-01-11 02:12:00,40.0,37.0,-100.00,NE,35,1.0,3.0,89,0.00,,,-99.99,,2013-01-11 08:12:00,
2013-01-11 02:22:00,39.0,36.0,-100.00,East,85,1.0,2.0,89,0.00,,,-99.99,,2013-01-11 08:22:00,
2013-01-11 02:32:00,38.0,35.0,-100.00,ESE,115,2.0,4.0,89,0.00,,,-99.99,,2013-01-11 08:32:00,
2013-01-11 02:42:00,38.0,35.0,-100.00,ESE,115,2.0,4.0,89,0.00,,,-99.99,,2013-01-11 08:42:00,
2013-01-11 02:52:00,39.0,36.0,-100.00,SSE,160,6.0,7.0,89,0.00,,,-99.99,,2013-01-11 08:52:00,
2013-01-11 03:02:00,39.0,36.0,-100.00,SSE,160,6.0,7.0,89,0.00,,,-99.99,,2013-01-11 09:02:00,
2013-01-11 03:12:00,39.0,36.0,-100.00,South,175,9.0,11.0,89,0.00,,,-99.99,,2013-01-11 09:12:00,
2013-01-11 03:22:00,39.0,36.0,-100.00,South,185,9.0,11.0,89,0.00,,,-99.99,,2013-01-11 09:22:00,
2013-01-11 03:32:00,40.0,37.0,-100.00,SSW,205,7.0,11.0,89,0.00,,,-99.99,,2013-01-11 09:32:00,
2013-01-11 03:42:00,40.0,37.0,-100.00,SSW,205,7.0,11.0,89,0.00,,,-99.99,,2013-01-11 09:42:00,
2013-01-11 03:52:00,40.0,38.0,-100.00,WSW,250,6.0,8.0,89,0.00,,,-99.99,,2013-01-11 09:52:00,
2013-01-11 04:02:00,40.0,38.0,-100.00,WSW,250,6.0,8.0,89,0.00,,,-99.99,,2013-01-11 10:02:00,
2013-01-11 04:12:00,40.0,37.0,-100.00,West,260,4.0,7.0,89,0.00,,,-99.99,,2013-01-11 10:12:00,
2013-01-11 04:22:00,40.0,37.0,-100.00,NW,310,4.0,6.0,89,0.00,,,-99.99,,2013-01-11 10:22:00,
2013-01-11 04:32:00,39.0,36.0,-100.00,WNW,290,2.0,3.0,89,0.00,,,-99.99,,2013-01-11 10:32:00,
2013-01-11 04:42:00,39.0,36.0,-100.00,WNW,290,2.0,3.0,89,0.00,,,-99.99,,2013-01-11 10:42:00,
2013-01-11 04:52:00,39.0,36.0,-100.00,WNW,295,4.0,6.0,89,0.00,,,-99.99,,2013-01-11 10:52:00,
2013-01-11 05:03:00,39.0,36.0,-100.00,WNW,295,4.0,6.0,89,0.00,,,-99.99,,2013-01-11 11:03:00,
2013-01-11 05:12:00,38.0,35.0,-100.00,WNW,300,6.0,7.0,89,0.00,,,-99.99,,2013-01-11 11:12:00,
2013-01-11 05:22:00,39.0,36.0,-100.00,WNW,290,6.0,7.0,89,0.00,,,-99.99,,2013-01-11 11:22:00,
2013-01-11 05:33:00,39.0,36.0,-100.00,West,280,6.0,10.0,89,0.00,,,-99.99,,2013-01-11 11:33:00,
2013-01-11 05:42:00,39.0,36.0,-100.00,West,280,6.0,10.0,89,0.00,,,-99.99,,2013-01-11 11:42:00,
2013-01-11 05:52:00,39.0,36.0,-100.00,WNW,285,9.0,12.0,89,0.00,,,-99.99,,2013-01-11 11:52:00,
2013-01-11 06:03:00,39.0,36.0,-100.00,WNW,285,9.0,12.0,89,0.00,,,-99.99,,2013-01-11 12:03:00,
2013-01-11 06:12:00,39.0,36.0,-100.00,West,280,7.0,14.0,89,0.00,,,-99.99,,2013-01-11 12:12:00,
2013-01-11 06:22:00,39.0,36.0,-100.00,West,280,7.0,11.0,89,0.00,,,-99.99,,2013-01-11 12:22:00,
2013-01-11 06:32:00,40.0,37.0,-100.00,West,280,7.0,10.0,89,0.00,,,-99.99,,2013-01-11 12:32:00,
2013-01-11 06:42:00,40.0,37.0,-100.00,West,280,7.0,10.0,89,0.00,,,-99.99,,2013-01-11 12:42:00,
2013-01-11 06:52:00,41.0,38.0,-100.00,West,270,10.0,12.0,89,0.00,,,-99.99,,2013-01-11 12:52:00,
2013-01-11 07:02:00,41.0,38.0,-100.00,West,270,10.0,12.0,89,0.00,,,-99.99,,2013-01-11 13:02:00,
2013-01-11 07:12:00,41.0,38.0,-100.00,West,270,8.0,11.0,89,0.00,,,-99.99,,2013-01-11 13:12:00,
2013-01-11 07:22:00,41.0,38.0,-100.00,WSW,250,4.0,11.0,89,0.00,,,-99.99,,2013-01-11 13:22:00,
2013-01-11 07:33:00,41.0,38.0,-100.00,West,260,7.0,10.0,89,0.00,,,-99.99,,2013-01-11 13:33:00,
2013-01-11 07:42:00,41.0,38.0,-100.00,West,260,7.0,10.0,89,0.00,,,-99.99,,2013-01-11 13:42:00,
2013-01-11 07:52:00,41.0,39.0,-100.00,West,265,9.0,12.0,89,0.00,,,-99.99,,2013-01-11 13:52:00,
2013-01-11 08:03:00,41.0,39.0,-100.00,West,265,9.0,12.0,89,0.00,,,-99.99,,2013-01-11 14:03:00,
2013-01-11 08:12:00,42.0,39.0,-100.00,West,265,11.0,14.0,89,0.00,,,-99.99,,2013-01-11 14:12:00,
2013-01-11 08:22:00,42.0,39.0,-100.00,West,260,10.0,17.0,89,0.00,,,-99.99,,2013-01-11 14:22:00,
2013-01-11 08:33:00,42.0,39.0,-100.00,WSW,255,9.0,12.0,89,0.00,,,-99.99,,2013-01-11 14:33:00,
2013-01-11 08:42:00,42.0,39.0,-100.00,WSW,255,9.0,12.0,89,0.00,,,-99.99,,2013-01-11 14:42:00,
2013-01-11 08:53:00,43.0,40.0,-100.00,WSW,255,9.0,13.0,89,0.00,,,-99.99,,2013-01-11 14:53:00,
2013-01-11 09:03:00,43.0,40.0,-100.00,WSW,255,9.0,13.0,89,0.00,,,-99.99,,2013-01-11 15:03:00,
2013-01-11 09:12:00,44.0,41.0,-100.00,WSW,250,10.0,12.0,89,0.00,,,-99.99,,2013-01-11 15:12:00,
2013-01-11 09:23:00,44.0,41.0,-100.00,WSW,240,8.0,12.0,89,0.00,,,-99.99,,2013-01-11 15:23:00,
2013-01-11 09:33:00,45.0,42.0,-100.00,WSW,250,10.0,13.0,89,0.00,,,-99.99,,2013-01-11 15:33:00,
2013-01-11 09:42:00,45.0,42.0,-100.00,WSW,250,10.0,13.0,89,0.00,,,-99.99,,2013-01-11 15:42:00,
2013-01-11 09:52:00,45.0,42.0,-100.00,WSW,245,11.0,17.0,89,0.00,,,-99.99,,2013-01-11 15:52:00,
2013-01-11 10:03:00,45.0,42.0,-100.00,WSW,245,11.0,17.0,89,0.00,,,-99.99,,2013-01-11 16:03:00,
2013-01-11 10:12:00,45.0,42.0,-100.00,WSW,240,8.0,17.0,89,0.00,,,-99.99,,2013-01-11 16:12:00,
2013-01-11 10:22:00,45.0,42.0,-100.00,WSW,240,7.0,12.0,89,0.00,,,-99.99,,2013-01-11 16:22:00,
2013-01-11 10:33:00,46.0,43.0,-100.00,WSW,240,9.0,12.0,89,0.00,,,-99.99,,2013-01-11 16:33:00,
2013-01-11 10:42:00,46.0,43.0,-100.00,WSW,240,9.0,12.0,89,0.00,,,-99.99,,2013-01-11 16:42:00,
2013-01-11 10:52:00,46.0,43.0,-100.00,SW,225,9.0,14.0,89,0.00,,,-99.99,,2013-01-11 16:52:00,
2013-01-11 11:03:00,46.0,43.0,-100.00,SW,225,9.0,14.0,89,0.00,,,-99.99,,2013-01-11 17:03:00,
2013-01-11 11:12:00,46.0,44.0,-100.00,SW,235,8.0,14.0,89,0.00,,,-99.99,,2013-01-11 17:12:00,
2013-01-11 11:22:00,46.0,44.0,-100.00,WSW,240,7.0,14.0,89,0.00,,,-99.99,,2013-01-11 17:22:00,
2013-01-11 11:33:00,47.0,44.0,-100.00,SW,225,9.0,18.0,89,0.00,,,-99.99,,2013-01-11 17:33:00,
2013-01-11 11:43:00,47.0,44.0,-100.00,SW,225,9.0,18.0,89,0.00,,,-99.99,,2013-01-11 17:43:00,
2013-01-11 11:53:00,47.0,44.0,-100.00,WSW,245,10.0,17.0,89,0.00,,,-99.99,,2013-01-11 17:53:00,
2013-01-11 12:03:00,47.0,44.0,-100.00,WSW,245,10.0,17.0,89,0.00,,,-99.99,,2013-01-11 18:03:00,
2013-01-11 12:12:00,47.0,44.0,-100.00,WSW,245,9.0,17.0,89,0.00,,,-99.99,,2013-01-11 18:12:00,
2013-01-11 12:23:00,47.0,44.0,-100.00,SW,230,10.0,18.0,89,0.00,,,-99.99,,2013-01-11 18:23:00,
2013-01-11 12:33:00,48.0,45.0,-100.00,SW,235,12.0,19.0,89,0.00,,,-99.99,,2013-01-11 18:33:00,
2013-01-11 12:43:00,48.0,45.0,-100.00,SW,235,12.0,19.0,89,0.00,,,-99.99,,2013-01-11 18:43:00,
2013-01-11 12:53:00,49.0,46.0,-100.00,WSW,240,11.0,18.0,89,0.00,,,-99.99,,2013-01-11 18:53:00,
2013-01-11 13:02:00,49.0,46.0,-100.00,WSW,240,11.0,18.0,89,0.00,,,-99.99,,2013-01-11 19:02:00,
2013-01-11 13:12:00,49.0,46.0,-100.00,WSW,245,11.0,22.0,89,0.00,,,-99.99,,2013-01-11 19:12:00,
2013-01-11 13:22:00,49.0,46.0,-100.00,SW,225,13.0,22.0,89,0.00,,,-99.99,,2013-01-11 19:22:00,
2013-01-11 13:32:00,49.0,46.0,-100.00,SW,220,14.0,21.0,89,0.00,,,-99.99,,2013-01-11 19:32:00,
2013-01-11 13:43:00,49.0,46.0,-100.00,SW,220,14.0,21.0,89,0.00,,,-99.99,,2013-01-11 19:43:00,
2013-01-11 13:53:00,49.0,46.0,-100.00,SW,220,15.0,22.0,89,0.00,,,-99.99,,2013-01-11 19:53:00,
2013-01-11 14:03:00,49.0,46.0,-100.00,SW,220,15.0,22.0,89,0.00,,,-99.99,,2013-01-11 20:03:00,
2013-01-11 14:12:00,50.0,47.0,-100.00,SW,225,12.0,19.0,89,0.00,,,-99.99,,2013-01-11 20:12:00,
2013-01-11 14:22:00,50.0,47.0,-100.00,SW,220,12.0,19.0,89,0.00,,,-99.99,,2013-01-11 20:22:00,
2013-01-11 14:33:00,51.0,47.0,-100.00,SW,225,15.0,22.0,88,0.00,,,-99.99,,2013-01-11 20:33:00,
2013-01-11 14:43:00,51.0,47.0,-100.00,SW,225,15.0,22.0,88,0.00,,,-99.99,,2013-01-11 20:43:00,
2013-01-11 14:52:00,51.0,48.0,-100.00,SW,225,14.0,22.0,87,0.00,,,-99.99,,2013-01-11 20:52:00,
2013-01-11 15:03:00,51.0,48.0,-100.00,SW,225,14.0,22.0,87,0.00,,,-99.99,,2013-01-11 21:03:00,
2013-01-11 15:12:00,51.0,47.0,-100.00,SW,225,15.0,23.0,86,0.00,,,-99.99,,2013-01-11 21:12:00,
2013-01-11 15:23:00,51.0,47.0,-100.00,SW,220,12.0,21.0,85,0.00,,,-99.99,,2013-01-11 21:23:00,
2013-01-11 15:33:00,51.0,46.0,-100.00,SW,215,14.0,22.0,83,0.00,,,-99.99,,2013-01-11 21:33:00,
2013-01-11 15:42:00,51.0,46.0,-100.00,SW,215,14.0,22.0,83,0.00,,,-99.99,,2013-01-11 21:42:00,
2013-01-11 15:52:00,51.0,46.0,-100.00,SW,225,13.0,22.0,82,0.00,,,-99.99,,2013-01-11 21:52:00,
2013-01-11 16:02:00,51.0,46.0,-100.00,SW,225,13.0,22.0,82,0.00,,,-99.99,,2013-01-11 22:02:00,
2013-01-11 16:12:00,51.0,46.0,-100.00,SW,225,12.0,20.0,81,0.00,,,-99.99,,2013-01-11 22:12:00,
2013-01-11 16:22:00,51.0,46.0,-100.00,SW,215,11.0,21.0,81,0.00,,,-99.99,,2013-01-11 22:22:00,
2013-01-11 16:33:00,52.0,46.0,-100.00,SW,230,12.0,19.0,79,0.00,,,-99.99,,2013-01-11 22:33:00,
2013-01-11 16:42:00,52.0,46.0,-100.00,SW,230,12.0,19.0,79,0.00,,,-99.99,,2013-01-11 22:42:00,
2013-01-11 16:52:00,52.0,45.0,-100.00,SW,220,12.0,22.0,78,0.00,,,-99.99,,2013-01-11 22:52:00,
2013-01-11 17:02:00,52.0,45.0,-100.00,SW,220,12.0,22.0,78,0.00,,,-99.99,,2013-01-11 23:02:00,
2013-01-11 17:12:00,52.0,45.0,-100.00,SW,225,15.0,24.0,77,0.00,,,-99.99,,2013-01-11 23:12:00,
2013-01-11 17:22:00,52.0,45.0,-100.00,SW,225,16.0,23.0,77,0.00,,,-99.99,,2013-01-11 23:22:00,
2013-01-11 17:32:00,52.0,45.0,-100.00,SW,225,12.0,21.0,75,0.00,,,-99.99,,2013-01-11 23:32:00,
2013-01-11 17:42:00,52.0,45.0,-100.00,SW,225,12.0,21.0,75,0.00,,,-99.99,,2013-01-11 23:42:00,
2013-01-11 17:53:00,52.0,44.0,-100.00,SW,225,16.0,26.0,74,0.00,,,-99.99,,2013-01-11 23:53:00,
2013-01-11 18:02:00,52.0,44.0,-100.00,SW,225,16.0,26.0,74,0.00,,,-99.99,,2013-01-12 00:02:00,
2013-01-11 18:12:00,52.0,44.0,-100.00,SW,220,16.0,26.0,74,0.00,,,-99.99,,2013-01-12 00:12:00,
2013-01-11 18:22:00,52.0,44.0,-100.00,SW,225,17.0,24.0,73,0.00,,,-99.99,,2013-01-12 00:22:00,
2013-01-11 18:32:00,53.0,44.0,-100.00,SW,225,15.0,29.0,71,0.00,,,-99.99,,2013-01-12 00:32:00,
2013-01-11 18:42:00,53.0,44.0,-100.00,SW,225,15.0,29.0,71,0.00,,,-99.99,,2013-01-12 00:42:00,
2013-01-11 18:52:00,54.0,44.0,-100.00,SW,235,18.0,29.0,69,0.00,,,-99.99,,2013-01-12 00:52:00,
2013-01-11 19:02:00,54.0,44.0,-100.00,SW,235,18.0,29.0,69,0.00,,,-99.99,,2013-01-12 01:02:00,
2013-01-11 19:12:00,53.0,43.0,-100.00,SW,230,16.0,27.0,68,0.00,,,-99.99,,2013-01-12 01:12:00,
2013-01-11 19:22:00,54.0,43.0,-100.00,SW,225,17.0,26.0,67,0.00,,,-99.99,,2013-01-12 01:22:00,
2013-01-11 19:32:00,54.0,43.0,-100.00,SW,235,18.0,29.0,65,0.00,,,-99.99,,2013-01-12 01:32:00,
2013-01-11 19:42:00,54.0,43.0,-100.00,SW,235,18.0,29.0,65,0.00,,,-99.99,,2013-01-12 01:42:00,
2013-01-11 19:52:00,54.0,42.0,-100.00,SW,230,17.0,28.0,65,0.00,,,-99.99,,2013-01-12 01:52:00,
2013-01-11 20:02:00,54.0,42.0,-100.00,SW,230,17.0,28.0,65,0.00,,,-99.99,,2013-01-12 02:02:00,
2013-01-11 20:12:00,54.0,42.0,-100.00,SW,235,15.0,27.0,64,0.00,,,-99.99,,2013-01-12 02:12:00,
2013-01-11 20:22:00,53.0,42.0,-100.00,SW,235,16.0,25.0,65,0.00,,,-99.99,,2013-01-12 02:22:00,
2013-01-11 20:32:00,53.0,42.0,-100.00,WSW,240,16.0,23.0,67,0.00,,,-99.99,,2013-01-12 02:32:00,
2013-01-11 20:42:00,53.0,42.0,-100.00,WSW,240,16.0,23.0,67,0.00,,,-99.99,,2013-01-12 02:42:00,
2013-01-11 20:52:00,53.0,42.0,-100.00,WSW,245,17.0,25.0,67,0.00,,,-99.99,,2013-01-12 02:52:00,
2013-01-11 21:02:00,53.0,42.0,-100.00,WSW,245,17.0,25.0,67,0.00,,,-99.99,,2013-01-12 03:02:00,
2013-01-11 21:12:00,52.0,42.0,-100.00,SW,235,15.0,27.0,68,0.00,,,-99.99,,2013-01-12 03:12:00,
2013-01-11 21:22:00,52.0,42.0,-100.00,SW,235,15.0,27.0,68,0.00,,,-99.99,,2013-01-12 03:22:00,
2013-01-11 21:33:00,52.0,42.0,-100.00,WSW,245,16.0,23.0,68,0.00,,,-99.99,,2013-01-12 03:33:00,
2013-01-11 21:42:00,52.0,42.0,-100.00,WSW,245,16.0,23.0,68,0.00,,,-99.99,,2013-01-12 03:42:00,
2013-01-11 21:52:00,52.0,42.0,-100.00,SW,235,16.0,27.0,68,0.00,,,-99.99,,2013-01-12 03:52:00,
2013-01-11 22:02:00,52.0,42.0,-100.00,SW,235,16.0,27.0,68,0.00,,,-99.99,,2013-01-12 04:02:00,
2013-01-11 22:12:00,52.0,42.0,-100.00,WSW,240,17.0,27.0,68,0.00,,,-99.99,,2013-01-12 04:12:00,
2013-01-11 22:22:00,52.0,42.0,-100.00,WSW,240,17.0,24.0,69,0.00,,,-99.99,,2013-01-12 04:22:00,
2013-01-11 22:32:00,51.0,42.0,-100.00,SW,235,17.0,24.0,70,0.00,,,-99.99,,2013-01-12 04:32:00,
2013-01-11 22:42:00,51.0,42.0,-100.00,SW,235,17.0,24.0,70,0.00,,,-99.99,,2013-01-12 04:42:00,
2013-01-11 22:52:00,51.0,42.0,-100.00,WSW,240,15.0,22.0,70,0.00,,,-99.99,,2013-01-12 04:52:00,
2013-01-11 23:03:00,51.0,42.0,-100.00,WSW,240,15.0,22.0,70,0.00,,,-99.99,,2013-01-12 05:03:00,
2013-01-11 23:12:00,51.0,42.0,-100.00,WSW,245,14.0,23.0,71,0.00,,,-99.99,,2013-01-12 05:12:00,
2013-01-11 23:22:00,51.0,42.0,-100.00,SW,235,14.0,21.0,71,0.00,,,-99.99,,2013-01-12 05:22:00,
2013-01-11 23:32:00,51.0,42.0,-100.00,SW,235,14.0,21.0,71,0.00,,,-99.99,,2013-01-12 05:32:00,
2013-01-11 23:42:00,51.0,42.0,-100.00,SW,235,14.0,21.0,71,0.00,,,-99.99,,2013-01-12 05:42:00,
2013-01-11 23:52:00,51.0,42.0,-100.00,SW,235,12.0,21.0,71,0.00,,,-99.99,,2013-01-12 05:52:00,